Theta_e
349 350 350 351 351 351 352 352 352 353 354 355 354 354 356 355 356 355 357 358 356 355 355 354 352 352 354 353 351 354 356 358 359 361 361 360 362 362 366 365 367 368 367 367 367 367 367 364 364 366 365 366 365 362 362 361 363 362 356 358 353 352 348 348 344 346 346 340 345 345 346 350 348 348 347 347 346 348 350 358 358 358 359 360 360
349 349 350 351 351 352 353 353 353 351 353 355 354 354 356 357 356 356 357 357 356 356 355 354 356 354 353 353 354 354 356 356 357 361 360 358 364 367 367 366 367 368 368 369 368 368 367 364 365 365 365 365 365 365 364 363 363 360 356 354 356 350 347 344 347 345 337 337 334 338 342 344 347 345 343 344 346 348 351 355 355 349 348 351 356
348 349 350 350 352 352 353 353 353 353 353 354 355 356 356 356 358 359 358 357 357 358 357 356 359 360 358 357 356 356 362 362 360 360 360 356 362 367 367 366 368 368 368 368 368 368 367 365 365 365 366 365 364 363 363 362 362 358 357 353 349 353 349 349 347 348 338 340 344 341 336 335 342 342 343 343 343 345 348 347 347 345 346 351 352
347 349 348 350 351 353 354 354 354 353 354 354 355 356 355 357 358 359 359 360 359 360 360 361 362 363 364 364 363 361 359 362 364 362 363 359 358 365 366 367 369 367 367 367 368 368 368 366 366 364 366 367 365 362 362 360 361 359 357 355 352 346 345 346 349 349 347 342 336 336 335 333 331 336 340 342 343 344 344 344 345 346 347 349 349
348 348 349 350 351 351 353 355 354 353 354 355 354 355 356 357 359 360 360 361 361 361 361 364 363 362 362 363 364 362 362 360 361 358 361 361 358 362 362 366 369 367 368 368 367 368 370 369 367 366 366 367 366 363 362 359 361 358 357 355 353 346 343 343 347 350 349 350 344 336 330 331 331 333 335 337 341 342 342 342 344 344 345 348 344
349 349 349 350 351 352 354 355 354 354 355 356 357 357 358 359 360 361 361 362 361 364 364 363 362 359 357 355 353 353 354 355 355 355 354 354 352 357 362 365 367 369 368 368 368 367 369 370 369 367 366 366 366 363 363 362 361 359 357 355 351 353 347 342 345 349 350 351 350 346 348 336 334 337 336 331 344 342 343 342 343 342 345 347 347
350 350 351 350 351 352 354 354 355 355 356 358 359 360 361 362 362 362 362 362 363 365 365 363 362 361 360 358 356 354 354 357 361 359 354 354 356 357 359 365 369 367 366 368 368 368 369 371 370 368 367 367 367 366 364 362 360 360 356 354 354 354 349 342 344 345 348 349 346 344 346 345 342 339 333 336 333 339 340 340 340 341 343 345 345
349 350 351 351 352 352 352 356 356 355 358 359 359 360 361 362 363 363 363 362 364 365 364 365 362 361 361 359 357 357 357 359 361 361 360 360 358 358 360 363 369 368 364 368 368 369 370 369 371 369 367 366 365 365 363 362 361 362 359 357 357 355 352 344 343 345 341 342 344 344 345 346 347 345 344 338 335 333 336 340 340 340 341 341 341
350 349 350 350 352 352 354 355 357 357 357 357 360 361 362 364 364 366 363 365 366 366 364 364 364 364 362 360 358 360 360 360 363 363 361 363 363 362 364 364 367 370 367 366 369 369 369 369 371 370 367 366 367 366 365 365 363 361 360 356 356 355 353 347 347 347 344 342 344 344 344 344 344 343 345 345 338 334 332 335 336 339 340 340 341
349 350 351 352 353 354 355 357 357 356 358 360 360 361 362 364 365 365 364 364 366 366 366 365 365 364 362 361 361 360 360 361 362 363 363 366 365 366 365 366 364 367 369 369 370 369 369 370 368 368 368 365 365 366 365 364 364 363 362 358 358 356 355 349 346 350 348 348 347 346 341 341 342 343 341 340 340 341 333 332 335 335 334 338 342
348 349 351 353 354 355 356 356 358 358 358 359 359 360 361 363 365 365 365 365 367 367 367 365 365 366 363 364 363 361 362 362 361 363 364 366 364 364 365 366 367 364 365 368 369 369 369 370 367 366 368 367 367 367 367 363 362 362 362 361 359 356 354 350 349 351 351 350 349 347 343 342 341 339 339 339 340 338 335 332 333 334 333 335 340
347 348 350 352 354 354 355 355 357 358 358 358 358 359 360 363 364 364 366 366 366 367 367 365 365 365 366 365 363 362 363 361 362 362 364 364 364 362 363 364 366 366 367 362 366 366 369 368 369 368 367 367 366 368 368 366 364 361 361 360 358 357 357 353 350 349 351 351 350 346 345 344 343 341 341 343 342 340 338 336 335 338 338 337 341
347 348 350 351 352 352 353 356 358 358 357 358 358 358 361 363 364 364 364 366 366 366 367 367 366 365 365 365 365 365 364 364 363 363 365 364 364 362 364 363 365 365 366 363 364 367 368 370 369 367 368 368 368 367 367 368 365 360 362 361 359 357 356 354 349 349 349 348 346 347 346 346 344 343 342 341 343 342 342 337 336 337 335 336 340
347 347 349 350 352 352 354 355 357 358 358 358 358 359 361 361 364 364 364 366 367 366 366 365 366 366 366 366 365 365 364 365 364 362 364 364 364 363 362 361 364 365 365 367 364 366 365 369 371 370 371 370 369 370 369 369 368 364 363 361 359 358 358 355 352 350 351 351 351 348 347 346 344 344 343 340 339 340 338 337 338 338 338 334 339
347 348 348 349 351 354 353 354 356 358 357 357 358 360 361 362 363 364 365 366 366 366 366 365 364 365 366 366 366 366 365 365 364 364 364 364 364 364 365 361 360 365 364 368 369 367 368 370 371 370 369 371 370 369 368 368 368 366 365 364 361 359 358 356 353 350 348 350 351 350 349 348 346 347 342 342 340 339 338 339 337 335 333 330 333
345 347 348 350 352 354 353 354 356 357 359 357 358 359 360 361 364 365 365 366 366 366 365 365 365 366 366 366 366 366 366 366 365 366 365 366 367 365 365 365 363 362 367 368 370 369 369 370 372 371 372 371 371 370 370 367 367 365 364 363 361 359 357 357 355 352 348 351 350 351 350 345 348 346 345 343 342 342 341 340 340 337 332 330 332
344 346 348 350 352 354 353 355 355 356 357 357 359 360 361 361 362 364 365 366 366 366 365 365 365 366 366 367 367 367 366 365 363 365 363 366 367 367 364 365 366 365 366 370 371 372 371 371 371 370 371 371 371 371 369 369 368 366 364 365 363 359 360 358 355 352 350 349 350 350 349 347 349 350 347 345 347 346 343 343 341 337 336 332 332
345 347 350 351 352 353 353 354 355 355 356 358 360 361 361 361 362 363 364 364 365 365 364 364 365 366 367 367 367 367 366 365 365 365 366 365 366 367 365 365 365 365 365 368 371 372 373 371 371 371 370 371 370 368 369 368 368 365 365 366 364 363 359 358 357 354 351 349 350 350 349 347 349 350 348 347 348 348 343 343 342 341 342 338 335
343 345 348 349 350 351 353 353 353 355 358 359 359 359 360 361 362 362 363 363 364 364 365 366 367 366 366 367 368 368 367 367 366 367 367 366 365 365 365 364 365 367 368 369 371 371 372 372 372 371 370 370 372 369 369 368 367 365 364 363 365 363 358 358 359 356 353 349 349 349 351 347 349 349 349 347 349 347 345 343 343 344 343 342 340
342 344 345 348 349 350 351 352 352 354 356 357 357 357 357 358 361 361 363 365 365 365 365 365 365 366 365 368 369 370 369 368 368 367 365 366 365 365 366 364 365 366 366 369 369 369 370 370 370 368 366 369 370 369 368 368 367 367 365 363 362 361 360 359 358 357 354 352 350 349 350 349 348 349 348 347 347 348 347 344 344 344 345 344 342
342 343 344 347 349 349 351 352 352 353 356 356 355 356 356 357 359 359 360 361 362 363 364 365 365 366 367 367 368 369 368 368 368 368 367 367 367 367 366 366 367 366 367 367 368 368 369 369 368 369 366 367 370 369 370 370 368 367 366 366 365 362 360 360 359 358 357 354 352 350 350 351 350 349 347 346 346 347 346 345 345 345 343 345 344
343 343 344 346 348 349 349 351 352 351 352 353 353 354 355 356 356 357 358 359 359 362 364 365 366 366 366 366 367 368 368 368 367 367 367 366 367 367 368 368 366 368 369 366 369 369 369 368 368 369 370 368 370 372 369 369 369 367 366 365 365 362 361 361 359 359 358 355 355 352 350 351 351 350 348 347 346 344 345 343 344 344 343 344 346
342 343 342 344 348 349 349 351 352 351 352 352 353 353 354 355 355 356 356 357 358 360 363 366 365 365 366 367 367 367 368 368 366 366 365 365 366 368 369 367 366 365 369 368 368 368 370 371 369 369 371 370 371 372 370 369 368 368 367 365 365 363 360 359 359 359 359 357 355 353 350 350 350 349 349 348 347 347 346 345 345 346 345 344 347
342 343 341 344 345 349 351 351 352 352 353 352 351 353 353 353 353 354 354 355 357 359 361 364 365 365 366 366 367 366 366 365 364 365 365 365 364 366 368 367 367 365 366 369 369 369 370 371 369 370 370 371 371 371 371 369 369 368 367 367 366 365 363 361 361 361 360 358 356 354 352 350 350 349 349 348 347 347 347 347 346 347 347 346 347
340 340 342 343 343 347 351 352 355 354 351 353 352 352 351 352 353 353 354 355 357 359 359 362 364 362 363 365 365 366 364 365 364 364 364 364 364 364 366 366 366 365 364 368 369 370 370 371 369 369 370 370 370 371 370 368 368 368 368 366 366 366 365 364 363 362 360 360 358 355 354 352 351 349 349 347 348 348 347 347 346 347 347 347 346
343 342 342 341 346 349 352 353 355 353 351 354 354 352 351 352 353 353 354 355 356 358 358 360 361 361 362 364 365 366 365 364 363 363 363 363 363 364 364 365 366 365 365 364 368 368 368 370 371 370 371 371 372 371 371 369 368 368 367 366 366 366 364 365 364 362 362 361 359 358 356 354 351 350 350 348 349 349 349 347 347 347 347 347 346
342 345 344 347 348 348 352 355 353 351 352 352 351 351 351 353 353 353 354 355 357 358 359 360 361 361 361 363 364 364 364 362 364 363 363 363 362 362 362 363 365 365 364 362 363 367 368 369 370 370 369 370 371 371 371 371 369 368 368 366 364 365 364 364 364 362 362 361 360 359 358 356 354 352 351 349 349 350 349 349 349 348 347 348 347
345 347 347 348 350 351 353 355 354 352 353 352 351 350 351 352 352 353 353 354 355 357 358 358 360 361 362 363 365 366 365 365 364 366 365 364 363 363 364 365 365 364 363 363 361 363 367 368 369 370 370 370 371 370 371 371 370 368 367 367 364 364 363 364 364 363 362 360 360 359 358 357 356 355 354 352 351 351 351 351 350 349 348 347 346
341 347 351 351 351 353 352 352 352 351 351 351 350 351 353 354 353 354 352 353 356 357 358 358 360 361 363 365 366 367 367 366 365 366 366 365 365 365 365 364 365 365 364 363 363 362 365 367 368 369 370 369 368 369 370 370 368 367 367 366 365 363 363 363 363 361 361 360 360 359 359 358 358 351 344 345 344 344 352 349 351 351 349 348 347
335 343 347 353 354 355 356 353 353 350 351 350 351 352 351 352 352 352 353 354 356 358 358 358 359 361 363 366 366 367 367 367 365 365 366 366 364 365 364 364 364 364 365 366 365 364 363 365 366 368 368 368 367 368 356 341 346 365 366 365 365 364 363 362 362 361 359 360 359 358 358 346 343 343 340 336 334 335 338 348 352 351 349 348 347
331 339 343 347 352 354 357 354 354 352 352 352 353 353 352 350 351 351 353 354 354 358 359 359 360 363 364 367 367 367 368 367 366 366 367 366 365 365 365 366 365 366 366 367 365 364 362 363 365 366 367 367 367 365 339 334 336 340 359 366 365 364 364 362 361 362 360 359 359 359 359 353 347 343 347 334 334 332 333 335 339 342 344 349 347
332 336 341 345 349 353 355 354 352 353 354 354 355 353 352 349 350 351 351 352 354 356 358 360 362 364 365 367 367 368 367 367 367 366 366 367 366 365 365 366 365 365 366 366 365 364 365 364 364 365 365 366 367 347 332 331 333 334 341 364 365 364 363 362 361 360 361 360 359 358 359 359 357 354 354 350 341 333 331 332 333 336 337 338 340
345 345 346 343 342 346 355 353 351 350 351 353 354 352 353 352 353 354 354 352 352 354 360 363 363 365 366 367 368 367 367 366 367 367 366 367 367 366 365 365 364 366 367 366 366 365 365 365 364 365 365 366 367 341 330 328 331 331 333 347 363 364 362 361 361 360 360 361 361 360 359 359 359 346 349 353 352 348 331 328 330 332 335 333 332
333 346 344 346 348 347 346 349 353 351 348 352 356 352 354 354 352 354 354 355 355 356 361 362 363 365 366 366 367 367 366 366 367 367 367 367 366 365 365 364 365 366 365 366 365 365 366 366 365 365 366 366 367 338 327 325 327 327 330 338 361 362 362 362 361 361 360 360 361 361 359 358 359 356 354 353 354 352 349 345 343 345 346 344 333
347 352 349 354 355 355 354 350 348 349 350 349 351 352 353 353 352 351 353 356 355 356 360 363 363 364 365 366 367 366 365 366 367 367 366 366 365 366 365 364 363 364 365 365 365 365 365 366 365 364 365 365 366 332 324 322 323 323 326 331 359 360 361 362 362 362 362 361 362 361 361 360 359 358 354 352 354 354 352 348 346 345 345 346 347
347 357 361 360 359 360 357 353 351 348 348 348 349 350 349 351 352 350 352 354 356 358 358 363 363 362 364 365 364 365 364 365 365 365 365 364 364 365 365 365 364 363 365 365 366 366 365 365 366 366 363 364 365 327 321 321 321 321 323 346 358 359 359 360 362 362 361 362 362 362 362 360 360 358 343 332 342 355 354 351 348 347 346 346 346
355 353 354 359 360 359 360 360 354 350 347 347 348 349 349 351 351 350 354 353 355 358 358 363 362 362 362 363 363 363 363 364 364 364 364 363 364 365 365 367 364 362 363 364 365 365 366 365 365 366 365 365 366 338 319 318 319 319 325 352 356 358 359 359 361 360 359 359 359 361 363 361 360 358 339 327 331 338 353 350 349 348 346 345 344
351 355 354 357 359 360 361 359 353 351 349 348 348 350 351 351 351 350 352 352 352 357 360 362 362 361 361 363 364 364 364 363 364 363 363 363 364 365 365 366 364 363 360 362 365 365 366 366 364 365 364 365 365 341 315 316 317 316 329 353 356 356 357 358 359 359 359 358 358 347 355 361 360 359 328 325 326 340 353 351 350 347 346 345 345
351 352 352 355 358 359 358 358 355 349 350 351 351 350 348 349 351 349 351 352 353 357 359 360 362 362 363 363 365 365 364 363 363 363 363 363 363 364 365 366 364 364 363 364 363 364 365 366 365 365 348 358 364 341 314 317 315 315 331 355 356 356 355 357 357 357 357 356 358 351 342 348 352 349 321 323 322 334 351 350 350 347 345 345 345
351 352 354 357 357 361 352 350 348 351 353 353 350 349 350 351 351 350 350 352 356 359 363 363 362 362 363 364 364 365 366 364 365 365 365 364 366 364 364 363 364 364 363 362 361 362 364 364 364 363 362 362 362 363 336 314 315 314 320 353 357 354 354 354 356 355 354 355 356 358 347 329 330 326 319 319 319 324 348 351 349 347 345 343 345
350 350 351 355 355 355 355 356 360 360 357 354 351 351 351 353 355 353 352 355 359 362 365 365 364 362 361 363 364 364 364 363 364 365 365 364 364 363 363 363 362 363 364 363 361 362 362 363 364 364 363 361 360 361 351 312 314 313 316 330 357 355 355 355 355 354 353 352 354 354 358 331 322 319 317 315 316 318 329 350 348 347 347 346 341
348 348 350 353 352 355 354 354 357 357 355 354 354 353 353 356 356 354 356 357 362 365 366 365 364 362 360 362 363 365 366 365 365 365 366 365 365 366 365 365 364 364 364 363 364 363 362 362 363 363 363 363 355 342 365 317 315 312 315 319 350 357 355 356 354 354 353 352 353 354 356 334 319 317 315 313 313 316 321 348 350 328 328 327 348
348 348 348 350 352 351 351 354 357 358 357 360 358 356 357 358 356 359 360 363 365 363 363 363 364 362 363 364 365 365 364 364 363 365 365 365 366 365 366 366 366 365 364 363 363 362 361 360 360 361 360 362 364 361 334 336 314 313 312 316 326 344 336 355 355 354 353 353 354 357 353 327 318 315 312 312 312 314 318 337 324 322 318 324 337
349 349 349 349 350 350 350 353 356 363 361 358 361 360 362 364 363 365 364 362 363 363 363 362 361 361 360 360 361 362 364 364 364 364 365 366 366 367 366 365 365 363 362 360 358 360 360 358 357 355 357 359 363 362 340 327 326 312 313 313 318 325 329 351 357 357 357 356 357 357 348 318 314 310 311 311 312 314 328 319 316 315 320 327 344
348 347 350 350 349 349 349 350 353 358 361 362 362 359 359 358 360 363 364 361 361 361 361 360 360 361 362 361 361 362 362 363 364 364 364 364 366 366 363 364 364 362 361 359 358 359 357 357 356 356 358 359 360 362 363 340 319 315 313 312 315 319 323 325 351 357 358 356 340 330 323 312 314 311 311 311 312 313 317 316 313 315 326 344 343
348 348 349 350 350 350 350 349 350 351 353 355 357 358 356 357 360 362 364 365 363 360 359 359 360 361 361 362 361 362 363 365 366 365 366 366 366 363 362 361 360 358 358 358 357 357 356 357 357 358 357 359 361 361 363 362 327 320 317 314 315 317 321 322 333 351 339 334 326 322 315 314 314 316 322 326 326 325 316 317 315 320 343 341 341
345 346 348 349 349 348 347 347 347 350 351 351 352 353 355 358 360 361 364 365 366 364 362 362 361 360 362 361 360 359 360 361 365 364 364 363 362 361 361 359 359 358 359 358 357 357 356 355 356 357 358 359 361 360 361 364 347 337 332 328 322 326 318 321 332 347 339 344 330 325 326 321 322 318 323 323 325 320 322 324 330 337 341 340 340
346 347 349 348 347 346 346 345 345 347 349 349 350 350 352 354 356 360 362 364 364 364 363 363 362 362 360 361 360 356 359 360 360 361 360 360 359 360 359 359 358 359 358 357 358 356 355 356 355 356 357 357 359 360 360 363 352 345 340 338 334 334 334 336 341 347 352 349 336 322 321 328 327 325 328 330 329 329 330 331 335 337 339 340 341
344 346 346 345 344 344 344 343 343 345 346 347 347 348 349 351 353 356 359 358 357 357 360 361 362 361 361 363 364 363 359 359 359 361 360 362 361 360 362 361 361 362 362 360 359 358 358 359 359 358 357 356 357 357 360 340 356 330 340 343 338 335 337 339 334 331 347 344 336 331 330 330 327 327 328 329 329 331 331 333 335 337 339 340 339
343 344 344 344 344 344 343 343 343 344 344 344 345 346 348 349 351 353 354 353 353 353 353 352 353 353 354 354 356 355 356 357 357 357 359 360 347 326 339 356 360 342 327 316 315 343 350 348 348 354 359 358 359 360 328 320 318 318 318 321 324 323 324 333 330 324 331 336 333 330 329 327 327 329 329 329 329 330 331 332 334 329 338 339 337
342 342 341 342 342 342 342 342 343 344 343 344 343 345 346 348 350 351 350 350 351 349 347 347 346 346 345 349 349 351 352 352 351 350 349 346 345 345 318 310 317 315 309 303 301 300 302 306 325 336 336 322 318 314 312 313 309 310 312 314 315 316 316 318 319 325 332 332 330 329 327 328 328 330 329 329 329 330 330 331 332 333 336 335 333
Wind_Speed
17 19 19 20 20 17 16 15 16 18 18 17 18 19 18 17 17 17 15 15 14 13 13 13 13 12 12 13 12 12 11 10 9 9 8 8 7 7 7 7 7 7 7 7 7 6 6 5 5 5 5 4 4 4 3 2 2 2 1 2 3 2 0 2 1 2 1 2 2 3 1 1 2 2 1 2 3 2 4 2 2 3 4 4 4
17 17 19 19 18 19 17 15 17 19 18 18 19 19 19 19 18 17 15 16 15 15 14 14 13 12 12 12 11 10 10 10 10 9 9 8 8 7 7 7 7 7 7 7 7 7 6 6 6 5 5 4 4 3 3 2 2 2 2 3 2 2 1 2 4 2 2 3 4 3 1 2 0 2 2 3 2 3 3 4 4 4 4 5 4
18 19 20 19 21 21 17 16 16 18 19 19 19 19 19 18 17 16 15 16 15 16 14 13 13 12 11 10 11 9 9 9 9 8 9 9 8 9 8 7 7 7 8 8 7 7 7 6 6 5 6 5 4 4 4 3 2 3 3 1 1 2 2 1 2 5 2 1 3 2 3 4 3 1 1 2 1 2 3 3 3 5 4 3 4
19 20 21 20 20 19 18 17 17 17 17 18 19 20 18 17 17 17 16 16 14 15 15 14 13 13 12 10 10 9 9 8 8 8 8 9 9 9 8 8 8 8 9 8 7 7 7 7 6 5 5 5 4 4 3 3 3 3 3 3 2 2 3 3 3 3 3 4 4 2 3 1 4 4 3 2 3 3 3 5 4 4 4 3 3
18 19 20 20 21 21 20 18 17 18 18 18 18 18 15 19 18 18 16 16 14 15 16 14 13 13 12 10 10 9 7 8 8 9 9 8 9 9 9 10 9 8 8 9 8 8 7 7 6 6 6 5 5 4 4 3 3 3 3 3 3 3 1 3 3 3 3 3 2 3 3 3 2 5 5 1 2 3 3 4 4 1 5 2 3
19 21 21 22 21 20 20 20 19 18 18 18 18 18 18 17 18 18 16 15 16 17 17 14 13 14 14 12 12 11 10 10 11 11 11 10 11 10 10 10 10 9 8 9 9 8 8 7 7 7 6 5 5 5 4 3 4 4 3 4 4 3 3 1 4 3 2 3 4 3 3 4 3 4 2 3 1 1 1 1 3 3 5 5 4
18 19 19 20 21 21 21 20 20 19 18 17 17 18 19 17 18 18 15 15 16 15 18 15 14 14 15 13 12 12 11 11 10 10 10 9 9 10 9 10 10 10 10 9 9 9 8 7 7 7 6 6 5 5 5 5 4 4 3 4 3 2 2 3 4 5 4 3 4 5 3 3 3 2 1 2 4 2 2 3 3 3 4 4 4
18 20 21 22 22 22 23 22 20 19 18 18 17 17 19 18 17 17 15 15 14 15 19 15 14 15 14 13 12 12 12 11 11 9 9 8 9 10 9 9 10 10 10 9 9 9 8 8 8 7 7 6 5 6 5 5 4 4 4 4 4 3 4 4 4 4 5 4 4 4 4 3 2 4 4 3 2 3 3 3 3 3 4 5 5
20 19 21 22 23 23 21 21 21 20 19 18 18 17 17 17 17 17 17 15 14 18 18 17 15 14 13 12 12 11 11 10 9 9 9 9 9 9 9 9 9 9 10 9 10 10 9 8 8 8 8 7 6 6 6 6 6 5 6 6 5 4 4 4 4 3 4 4 5 4 3 3 4 5 3 3 4 3 3 6 4 3 3 3 2
19 20 20 21 21 22 22 21 21 20 19 18 17 16 16 16 17 19 18 15 16 18 16 17 18 14 13 13 14 12 10 9 9 9 9 9 10 9 8 8 8 9 9 10 9 10 10 9 9 9 9 8 6 7 6 6 6 7 7 7 6 6 4 5 5 4 4 1 4 3 3 4 3 4 5 5 5 5 3 3 5 6 4 3 3
18 19 19 21 21 21 21 22 21 20 17 19 18 18 17 17 18 19 19 16 17 17 17 18 18 14 13 15 16 14 13 11 10 10 10 10 10 10 9 9 8 9 9 9 11 10 10 10 10 9 8 7 7 7 7 7 7 7 7 7 7 7 5 6 6 5 4 4 4 3 4 4 4 4 4 5 5 4 4 6 4 6 5 6 5
18 18 19 20 19 19 19 20 20 20 19 19 19 18 18 17 18 20 19 18 16 16 17 18 16 15 14 15 16 15 14 12 13 12 12 12 11 10 9 8 9 9 9 9 10 12 10 10 10 9 8 8 8 7 7 7 6 6 7 7 7 8 6 6 6 7 7 5 5 5 5 4 3 3 3 3 4 4 4 5 3 2 1 3 3
18 18 18 18 19 20 21 20 20 21 20 20 20 19 18 18 19 20 20 19 16 17 17 18 16 16 15 15 15 13 14 13 13 12 12 11 10 10 9 9 9 9 10 10 11 12 10 10 10 9 8 8 8 8 8 8 7 6 7 8 8 8 7 7 6 7 8 6 6 6 5 5 4 3 2 3 4 4 4 5 5 3 3 3 3
18 18 18 18 19 20 21 21 21 20 21 21 21 19 17 17 19 20 19 19 17 17 17 17 18 16 15 15 14 13 14 14 13 12 12 11 10 11 11 11 10 11 11 11 11 11 11 10 10 10 9 8 8 8 9 8 8 7 8 8 8 8 7 8 8 8 7 8 6 5 5 5 4 5 4 4 4 4 5 6 5 3 4 4 3
17 17 19 20 21 22 21 21 20 20 22 22 20 19 18 18 19 21 20 20 19 18 16 18 16 17 15 15 14 13 13 13 12 11 12 12 11 12 11 11 11 10 11 10 11 11 11 10 11 11 10 10 10 9 9 9 9 8 8 9 8 7 8 8 8 9 8 9 8 6 5 6 6 4 5 5 4 4 4 4 4 4 5 5 4
18 19 20 21 21 21 20 20 21 20 22 21 22 20 20 19 20 21 21 20 20 19 18 18 17 15 16 16 16 15 12 12 11 11 11 12 12 12 11 11 11 10 10 10 11 11 11 11 11 11 11 11 11 10 9 9 10 9 8 8 9 7 8 10 8 9 9 10 9 8 6 7 6 6 5 4 5 4 4 4 3 4 5 4 4
18 18 18 21 20 20 20 21 20 20 21 22 22 22 22 20 20 21 21 20 21 20 19 17 17 17 18 17 16 15 15 15 14 15 15 13 12 12 12 12 12 11 10 10 11 11 11 12 11 11 11 11 11 11 10 10 10 10 9 9 10 9 9 10 9 8 9 9 9 10 8 7 6 6 6 5 4 4 4 4 5 5 5 5 4
20 20 20 20 21 22 21 20 22 22 24 23 23 22 20 20 21 22 21 22 21 20 20 18 18 18 16 17 17 17 16 16 15 14 14 13 13 12 12 11 12 12 11 10 11 12 12 12 11 11 11 11 12 11 11 11 11 9 9 9 9 9 9 8 9 9 9 9 9 9 9 7 7 7 7 7 5 5 5 5 5 5 4 5 5
16 18 17 18 19 21 21 23 24 24 23 23 23 22 20 20 20 22 24 24 23 19 18 16 17 14 14 17 18 17 16 15 14 14 13 14 15 14 14 13 13 12 11 11 11 12 12 11 12 12 11 12 12 11 11 11 12 10 9 9 10 10 10 9 9 9 9 9 10 10 9 8 8 9 8 8 7 7 6 6 6 6 6 6 5
16 17 18 19 21 23 24 24 24 24 24 22 24 22 24 23 22 21 21 20 20 20 19 19 19 17 16 16 17 16 16 15 14 14 14 15 15 15 15 15 14 12 13 13 12 12 13 13 12 13 13 12 12 12 12 12 12 11 9 9 10 11 11 11 10 9 8 9 10 11 10 9 8 8 8 8 8 8 7 7 7 7 6 7 6
16 17 18 20 21 22 22 22 22 21 19 20 21 23 23 22 22 23 22 22 23 22 21 19 17 18 18 18 18 17 18 16 16 16 16 15 14 14 14 13 12 13 13 14 14 13 13 13 13 12 13 12 12 12 11 11 12 11 10 10 10 11 12 11 10 11 10 9 10 11 11 10 9 9 8 8 8 9 9 8 7 7 7 7 7
17 18 18 19 20 21 21 19 18 19 20 21 21 20 22 22 21 22 22 21 23 21 19 19 18 17 20 19 19 18 17 16 17 16 16 15 15 14 14 13 14 14 13 14 14 13 13 13 13 13 12 13 12 12 13 11 12 11 12 10 10 12 13 13 12 12 11 9 10 11 11 11 11 10 10 10 9 9 10 9 8 8 8 7 8
14 15 15 15 16 16 17 18 19 21 20 21 20 20 21 24 23 21 22 23 22 22 20 18 18 18 20 19 18 18 17 18 19 17 18 17 16 15 14 14 14 13 14 14 14 14 13 13 13 12 12 12 13 13 12 12 12 13 13 12 11 13 14 14 14 13 12 11 11 11 12 11 10 11 11 10 10 9 9 9 9 8 8 8 8
8 9 11 11 11 13 14 17 18 18 19 21 21 20 20 21 21 21 24 24 23 21 20 19 19 20 20 19 18 18 19 19 20 17 19 19 17 16 15 15 15 14 13 13 14 14 13 13 14 13 13 13 13 13 12 13 13 13 13 13 12 13 13 14 14 13 13 12 13 12 12 12 12 12 12 10 10 10 9 9 10 9 9 9 7
8 9 10 10 12 14 15 15 16 17 18 18 20 20 21 21 21 21 22 24 22 21 21 21 21 22 21 19 20 19 20 20 20 18 20 20 19 17 15 16 15 15 15 13 13 13 13 14 13 14 14 14 14 14 13 13 13 13 14 13 13 13 13 14 14 13 13 13 13 13 13 13 13 12 12 12 11 12 10 10 10 9 9 9 8
9 10 11 14 13 12 13 15 15 17 18 18 18 20 21 20 22 22 21 21 22 20 21 21 21 21 20 22 20 20 20 22 21 20 21 20 18 18 17 15 16 16 16 15 14 13 13 14 14 14 14 14 14 14 14 14 14 14 13 14 13 13 14 13 14 14 14 14 13 14 13 13 14 13 12 12 12 13 12 11 11 10 10 9 9
8 9 9 10 10 14 14 15 15 18 18 17 19 19 19 19 21 22 19 20 20 19 19 20 20 21 20 21 20 20 20 21 20 19 18 18 19 19 19 17 16 17 17 16 16 15 14 14 15 14 15 15 14 14 14 14 14 14 14 14 14 14 13 13 13 14 14 14 14 14 13 14 14 14 14 13 13 13 12 13 12 11 10 10 10
5 6 8 10 11 11 12 15 16 16 17 16 18 18 18 18 20 20 20 19 17 19 19 19 19 19 19 20 20 20 20 19 18 17 17 18 18 18 17 16 15 17 17 18 18 16 15 14 15 15 15 14 14 14 14 15 14 14 13 14 14 14 14 13 13 14 15 14 15 15 15 15 15 14 14 13 13 12 11 12 11 10 11 11 10
6 7 8 10 11 12 13 14 16 17 19 19 18 18 16 17 17 17 19 20 19 19 20 20 19 18 18 18 17 17 17 17 17 17 17 18 17 16 17 16 16 16 15 17 17 17 16 15 15 16 15 15 15 14 13 14 15 15 14 14 15 15 14 14 13 14 14 14 14 14 15 15 15 15 16 14 13 12 11 11 11 11 11 11 10
7 8 9 10 11 10 12 14 15 18 18 19 18 18 19 19 18 19 19 19 17 18 19 19 19 18 17 17 17 16 16 17 17 18 17 18 17 17 17 17 17 17 15 15 16 16 17 17 16 16 15 14 14 13 14 18 16 14 15 13 13 14 15 14 13 13 14 15 15 14 14 17 15 16 15 15 14 14 13 11 10 11 11 11 11
4 5 7 8 9 9 11 14 15 17 18 17 17 17 18 19 18 19 19 18 18 17 18 19 19 17 17 17 16 16 15 17 17 17 17 17 18 16 16 16 16 16 16 15 15 17 17 16 17 16 17 15 13 13 17 19 19 18 15 14 13 13 14 14 15 14 14 14 14 15 14 13 14 13 15 17 14 14 15 13 11 11 12 12 11
4 4 5 6 7 9 11 14 16 17 18 17 16 17 17 19 19 19 19 18 17 17 18 18 17 16 17 17 16 16 17 17 17 18 17 17 16 17 16 16 16 17 16 15 16 17 17 16 15 17 17 16 15 15 18 20 20 20 18 14 13 12 13 14 15 15 14 13 13 13 13 11 13 16 15 14 15 16 16 16 14 12 12 14 12
4 5 7 7 8 8 10 12 13 15 16 19 17 16 17 18 17 16 15 17 19 19 17 16 16 16 17 16 15 17 17 17 18 17 16 16 17 17 17 17 18 17 16 17 17 16 17 17 16 17 17 16 16 16 19 21 22 22 22 18 13 13 14 14 15 16 15 14 13 12 12 11 10 16 15 15 15 14 14 17 16 14 11 13 14
8 3 4 5 5 5 6 9 11 13 16 15 16 18 16 16 16 14 16 16 16 16 15 15 16 16 16 15 16 17 17 17 16 16 16 16 17 18 18 17 16 16 16 16 17 18 16 16 17 17 15 15 16 15 21 22 22 23 22 20 15 15 15 15 16 16 15 15 15 13 12 12 12 13 15 15 14 15 14 13 12 12 13 14 13
6 5 5 3 4 5 6 7 9 11 12 14 16 17 15 15 17 18 17 16 16 16 15 15 16 16 15 16 17 17 17 16 16 16 16 17 17 16 17 17 16 16 16 16 17 17 17 17 17 17 16 16 15 16 21 22 22 23 22 20 17 16 15 15 15 16 16 15 15 14 14 13 13 13 14 16 15 14 14 13 14 15 15 15 15
5 3 2 4 5 6 6 6 6 8 11 12 13 14 15 16 17 18 17 17 16 16 15 14 16 17 17 17 17 16 16 15 16 16 17 18 17 17 17 16 15 15 15 15 15 16 17 17 17 17 17 18 16 18 21 22 22 22 23 16 17 17 17 15 15 15 15 14 14 15 15 15 14 14 14 19 16 14 14 14 14 15 14 14 14
3 4 5 4 6 7 7 6 7 7 9 11 11 13 15 15 17 17 17 17 16 15 16 16 17 17 17 17 17 16 16 16 16 16 17 18 18 17 16 14 15 16 15 16 16 16 15 16 18 18 18 16 15 15 20 22 22 24 19 14 16 15 16 16 15 17 16 15 16 17 16 14 15 14 14 19 18 16 14 16 15 14 13 13 14
4 3 5 6 7 7 8 7 7 8 9 9 11 12 14 14 15 16 17 17 18 17 17 16 16 17 16 15 14 15 15 15 15 17 18 17 17 14 15 14 16 16 17 17 15 14 15 15 17 18 18 16 16 14 22 22 24 24 21 16 15 16 18 16 16 17 15 14 16 19 19 17 15 14 17 21 19 16 14 15 15 15 14 14 13
2 4 5 5 6 7 7 6 7 8 9 10 11 13 14 14 14 15 15 16 17 16 16 15 13 12 12 13 14 14 15 16 16 17 16 15 15 14 13 12 14 14 15 14 13 13 14 14 15 17 15 17 17 13 22 24 26 26 21 15 15 17 18 18 16 15 16 16 14 14 17 17 17 13 21 22 21 19 15 16 15 15 15 14 13
2 3 3 3 4 3 3 6 7 6 7 10 11 11 12 12 13 13 14 15 14 12 11 12 13 14 14 14 13 14 14 15 15 14 13 13 12 13 14 14 14 13 13 13 13 13 15 14 15 17 15 17 17 16 17 25 26 27 28 17 17 18 19 20 17 15 16 17 15 14 13 19 17 14 22 23 22 22 17 15 15 15 15 15 12
1 1 3 1 0 1 2 2 2 1 3 7 9 10 11 10 11 12 13 11 10 10 10 11 12 12 12 13 12 13 15 15 14 13 13 13 13 13 13 13 13 12 12 12 13 13 14 14 14 15 16 17 16 19 15 25 24 26 28 24 17 20 20 18 18 16 17 16 15 16 12 17 19 18 22 23 23 22 18 15 17 15 14 12 12
1 1 2 0 2 3 2 4 3 2 3 5 7 8 9 9 9 9 9 8 8 9 9 10 11 12 13 13 13 12 12 12 12 12 12 12 11 11 12 13 12 12 13 13 13 14 14 14 14 15 16 16 16 20 14 22 27 28 29 33 19 20 21 20 20 18 18 18 18 16 13 16 22 19 21 22 24 23 22 12 13 13 11 10 9
3 3 2 2 3 4 5 5 4 4 4 4 7 8 8 8 8 6 5 6 6 7 8 9 9 11 11 11 10 12 10 10 11 12 12 11 11 11 12 12 12 12 14 15 15 15 16 16 14 15 17 16 16 14 19 16 25 28 29 31 33 25 25 19 19 19 20 19 18 15 14 19 23 21 21 22 22 23 20 13 14 14 11 13 11
4 4 4 4 5 5 6 7 6 7 6 6 7 8 8 9 8 5 5 5 6 6 7 8 8 9 9 10 10 11 11 10 11 11 12 12 12 11 11 11 11 12 12 14 15 14 14 15 17 17 16 16 15 17 15 21 21 28 28 31 31 28 21 17 19 17 17 16 14 13 14 19 23 22 21 20 20 20 14 18 11 13 15 12 11
6 5 4 5 7 9 9 9 8 9 9 9 8 10 10 9 6 4 4 4 5 6 6 7 8 9 9 10 10 10 11 11 10 11 11 11 12 11 11 12 12 14 13 15 14 13 15 15 15 16 16 16 16 16 15 16 25 25 27 27 28 29 25 23 19 18 15 17 15 18 17 21 22 22 21 19 16 18 19 18 14 14 13 11 13
6 6 5 7 9 10 11 12 11 10 10 10 10 9 10 7 5 4 4 4 4 4 5 6 6 7 8 8 9 9 9 9 10 9 10 10 11 12 12 12 12 13 13 14 14 14 14 14 14 16 15 14 13 15 16 10 16 21 23 26 29 29 30 27 24 20 20 17 18 20 22 23 22 20 14 10 8 10 13 15 15 14 12 13 12
6 5 5 6 8 10 11 13 13 11 11 10 11 9 8 7 6 5 5 5 5 5 5 5 5 5 6 6 7 7 7 7 8 8 8 9 10 10 10 11 11 12 12 13 13 13 14 15 15 16 15 16 15 17 17 10 10 11 12 16 20 21 28 25 17 16 16 11 17 18 16 18 16 21 18 15 13 13 11 10 8 11 13 11 11
5 5 4 6 7 9 10 12 12 11 10 10 10 9 8 7 6 5 5 5 7 6 7 7 7 6 6 6 5 3 2 5 6 7 7 8 9 9 9 9 10 10 11 11 11 13 14 15 15 15 15 16 16 17 18 12 11 12 12 12 14 13 13 13 16 17 18 12 11 14 18 14 13 12 11 9 9 9 10 11 12 13 13 9 9
6 5 5 6 7 9 10 11 12 10 10 10 10 9 8 7 6 6 6 7 7 7 6 7 6 6 5 4 5 5 6 4 4 4 2 2 3 3 4 5 8 7 6 7 8 10 12 14 13 13 13 15 16 18 17 16 12 18 18 15 14 15 14 14 20 24 14 9 10 8 11 14 14 14 14 13 12 13 13 12 14 13 10 10 10
6 7 8 8 9 10 11 11 11 10 10 10 9 8 7 7 7 7 8 9 9 9 8 7 7 6 6 5 4 4 3 2 2 1 1 0 5 5 4 4 5 8 13 12 5 6 8 8 10 10 11 12 14 14 18 16 15 23 26 27 26 27 27 23 28 26 15 11 13 14 14 17 17 15 17 15 16 15 15 14 14 13 11 11 12
9 10 11 11 11 11 12 12 11 11 11 11 10 9 8 7 7 7 7 8 7 7 7 8 8 8 7 7 6 6 5 5 4 4 3 3 4 3 0 0 2 6 8 11 11 10 10 5 3 8 13 18 19 23 26 23 16 18 22 28 29 30 31 30 23 16 15 14 13 13 13 12 14 19 17 18 18 17 15 15 14 13 10 10 10
Wind_Direction
181 181 184 183 186 187 190 189 191 192 194 192 192 192 192 190 189 190 191 192 189 187 192 195 195 195 201 203 204 202 207 208 210 211 214 211 201 206 191 203 200 203 205 209 213 218 229 233 229 229 231 234 240 248 252 244 225 235 161 166 180 231 197 210 106 268 103 204 195 250 193 251 254 181 273 228 177 159 106 162 115 120 123 126 114
176 179 185 184 185 184 186 189 189 190 192 192 194 193 191 192 192 190 189 192 193 190 193 196 197 196 195 199 200 200 200 205 207 209 212 203 195 200 202 207 201 203 206 209 215 219 222 224 225 226 228 231 237 247 248 235 223 227 177 165 217 257 261 294 92 190 182 209 185 173 200 186 355 272 191 181 162 133 131 145 138 139 125 122 107
180 182 183 185 184 184 184 188 190 191 190 193 193 194 192 194 194 191 190 192 194 191 193 195 195 197 196 194 197 197 199 203 208 206 210 210 190 197 205 206 207 206 208 208 215 218 223 225 222 219 223 225 225 229 227 229 225 219 209 230 201 201 256 127 168 250 142 156 68 233 179 174 141 195 172 151 147 122 137 142 121 105 102 105 115
182 182 183 185 184 182 183 187 187 189 189 192 193 194 194 196 194 192 192 192 193 192 193 194 194 192 195 195 194 204 194 197 207 206 206 212 203 197 201 204 205 211 206 208 212 217 220 222 220 219 215 220 225 228 230 224 210 207 215 216 231 265 188 168 172 208 285 138 187 216 103 242 158 157 170 171 177 153 157 136 140 127 95 93 131
184 183 184 183 184 186 185 185 185 188 189 190 192 192 195 195 194 193 193 193 192 191 191 191 190 193 193 197 194 201 205 204 202 205 204 206 214 206 204 200 202 211 207 207 212 213 217 218 221 218 217 213 220 225 225 223 206 213 208 228 225 256 243 148 160 179 239 288 324 185 158 171 174 125 159 146 227 158 155 127 105 128 109 114 86
186 185 186 185 185 184 185 185 187 188 189 190 191 191 194 194 194 193 194 194 195 191 188 189 191 193 191 194 196 198 199 200 203 202 201 202 211 209 207 201 199 204 209 208 210 213 212 215 217 221 217 215 217 226 222 216 208 231 186 222 206 221 295 192 166 174 223 229 255 302 355 8 19 39 298 150 226 171 122 108 154 156 129 142 125
192 191 188 187 185 185 186 188 189 188 188 186 188 190 191 191 192 191 193 195 196 191 189 191 190 195 192 189 193 193 197 202 204 204 206 204 209 208 205 200 199 203 205 207 210 211 214 213 215 220 222 219 217 225 220 216 206 214 200 208 213 201 195 221 199 174 180 231 234 247 254 273 10 286 185 149 190 197 215 200 175 169 139 137 158
189 192 191 189 186 187 188 187 189 189 185 186 188 188 190 190 189 191 193 196 194 194 194 191 191 196 190 191 194 198 201 200 198 202 205 206 204 208 201 200 197 202 208 205 210 208 212 214 216 221 222 222 216 222 225 219 206 203 208 203 200 194 199 212 212 181 181 195 207 230 228 255 282 281 283 296 276 203 197 248 194 191 167 185 175
192 190 192 192 189 190 189 188 188 187 186 187 187 187 187 188 187 190 194 194 195 196 194 193 197 194 189 191 197 202 204 203 194 195 197 199 201 201 200 201 200 200 207 209 206 210 209 217 216 221 223 222 217 224 220 211 211 200 200 200 195 191 203 204 215 205 211 175 168 210 237 228 230 246 259 254 264 257 214 188 209 190 198 198 201
198 196 194 194 193 191 190 187 185 189 188 185 184 184 185 186 189 190 192 194 198 195 190 193 201 195 191 195 198 199 201 202 199 191 194 191 197 196 198 203 204 202 202 209 210 210 211 213 218 220 223 222 218 227 222 208 203 202 200 204 197 197 195 200 201 210 215 238 161 183 200 206 221 220 231 236 229 253 269 241 182 185 218 213 179
198 197 195 195 195 193 187 187 188 187 186 183 184 185 186 187 188 189 191 193 197 193 190 195 200 196 195 195 199 199 197 197 197 195 192 192 197 198 199 201 207 210 208 203 211 211 212 214 221 220 222 222 217 220 223 216 203 203 202 204 199 198 194 197 204 209 206 218 191 201 209 205 203 212 214 224 225 230 225 243 202 204 216 175 196
199 197 195 193 192 193 192 191 187 187 187 186 187 185 186 187 187 190 191 191 191 191 192 198 199 196 199 199 201 202 197 197 198 197 193 196 198 200 201 203 206 210 212 212 207 209 209 213 218 220 217 218 216 217 220 220 213 199 193 201 206 203 199 198 200 201 207 201 213 200 212 229 215 243 230 209 244 245 228 243 281 21 6 265 147
198 197 194 190 190 190 191 190 188 186 189 189 188 186 185 187 188 190 192 191 191 191 194 196 197 199 200 202 203 202 202 202 201 202 198 200 200 201 198 204 204 207 208 212 211 208 204 206 208 210 210 212 220 217 218 218 217 213 199 206 209 202 201 195 199 203 203 205 203 214 210 216 211 214 249 253 204 229 248 255 252 209 221 234 205
200 196 195 192 189 190 190 188 187 187 188 188 189 188 185 187 187 190 192 190 191 192 194 196 199 200 200 201 202 201 203 203 204 204 202 202 200 202 203 205 205 208 209 210 212 209 209 203 201 203 206 205 206 215 220 216 213 213 204 211 209 206 203 198 202 203 204 206 209 216 209 216 221 204 203 226 228 206 221 235 240 253 262 261 154
198 197 197 195 192 189 188 187 187 187 188 188 188 188 185 186 186 188 189 190 191 193 194 198 201 202 201 202 202 202 203 203 206 207 205 204 203 203 205 209 210 210 212 211 208 211 209 205 203 203 202 202 202 207 215 216 213 215 215 213 215 208 204 201 201 204 202 202 205 212 215 216 218 218 210 199 233 220 229 229 235 240 226 232 211
199 200 200 198 193 189 188 187 187 187 187 188 189 188 188 188 186 187 188 188 191 192 195 197 201 201 201 201 203 203 202 203 204 205 206 205 204 205 205 209 214 212 210 207 203 204 204 205 202 203 201 202 204 203 209 213 210 214 215 213 215 209 207 202 203 204 207 203 205 205 210 222 208 213 223 211 215 232 214 229 222 229 248 224 219
198 200 200 198 194 191 191 188 187 186 186 188 188 188 188 185 184 186 188 188 191 194 196 197 199 201 201 201 201 203 203 203 204 203 204 203 205 205 206 208 210 213 210 204 203 199 202 203 204 205 202 205 206 202 204 214 210 210 211 212 213 212 207 206 202 203 207 203 205 204 207 215 217 207 212 215 208 220 220 212 215 219 215 256 233
199 200 198 195 194 193 192 190 189 188 188 188 186 187 187 186 185 184 185 189 192 192 194 194 197 200 198 199 202 204 204 205 206 205 204 204 205 207 209 209 210 209 209 207 202 200 201 202 206 205 205 205 207 208 203 212 210 211 206 208 209 212 210 207 202 204 206 206 205 204 204 210 209 204 208 213 199 206 216 210 208 216 224 230 238
201 202 198 196 196 196 195 193 192 190 188 187 185 184 186 188 188 186 187 189 188 189 190 192 195 197 199 200 201 203 205 206 206 205 203 205 207 206 208 209 208 207 206 206 202 202 201 200 204 205 205 205 204 206 200 207 210 212 203 211 208 212 212 209 201 204 208 204 206 206 202 210 204 206 206 205 201 202 210 209 208 208 206 221 235
202 202 200 198 197 198 197 197 195 189 187 188 186 184 187 188 187 191 191 188 187 188 188 193 195 196 198 199 201 203 203 205 204 203 204 206 208 208 208 208 207 205 206 203 205 205 203 203 203 207 207 206 204 203 201 202 209 209 201 207 208 210 212 213 208 203 209 203 204 207 205 207 204 205 208 204 199 203 206 209 207 204 202 206 210
203 202 201 199 201 200 200 199 198 195 189 188 187 188 188 187 189 191 190 189 189 190 189 192 193 197 197 197 199 200 203 203 204 203 206 208 208 209 210 210 205 208 205 204 205 206 206 207 209 208 210 207 204 201 198 197 201 200 199 203 205 206 212 215 215 208 209 205 204 207 207 207 205 206 204 206 202 200 205 211 209 204 206 201 207
200 202 202 201 202 202 201 197 197 194 192 192 191 190 189 190 191 192 191 191 193 191 192 191 193 195 197 199 199 199 201 202 204 204 206 207 207 207 209 207 208 205 206 206 205 205 206 208 210 209 209 208 203 201 199 195 195 196 197 196 200 205 212 217 218 215 207 207 203 208 208 205 205 209 207 209 208 203 203 208 206 209 210 207 203
204 205 205 204 202 202 199 197 195 198 196 192 191 192 192 193 192 191 192 193 193 192 192 190 191 193 197 198 197 199 199 200 203 203 205 206 206 207 205 207 207 207 204 208 206 207 204 205 209 209 207 208 206 203 203 199 197 195 196 198 199 199 208 215 218 218 209 204 204 207 210 206 203 207 208 211 210 210 207 210 209 210 216 215 202
205 209 210 208 204 195 199 198 195 195 194 193 193 193 194 195 195 193 194 193 194 193 191 190 192 195 195 194 196 198 200 201 203 205 206 208 207 206 204 207 207 209 205 205 208 207 204 203 205 206 206 206 205 205 204 202 200 198 197 198 198 200 202 208 212 211 209 206 206 207 211 209 207 207 207 207 210 209 211 210 211 210 214 219 213
188 198 203 202 201 197 199 197 192 192 195 195 194 194 194 193 194 196 196 194 193 192 191 191 193 195 194 194 196 197 199 203 205 205 207 208 209 208 205 207 207 210 208 203 204 207 206 203 205 205 206 206 206 205 206 206 203 202 200 200 199 199 201 204 209 211 211 209 208 209 209 209 209 209 206 206 206 207 209 210 211 209 211 212 214
207 202 197 203 202 200 194 195 192 193 194 193 194 194 194 192 194 195 194 193 194 192 192 191 194 196 195 195 197 198 201 203 205 208 209 210 210 210 208 206 208 209 208 208 203 203 204 204 205 206 207 207 206 207 207 208 207 204 202 202 201 202 203 205 208 211 212 210 211 210 211 209 210 209 208 205 204 205 207 212 211 212 210 209 211
209 198 201 199 203 203 197 191 191 193 194 194 194 196 197 194 195 195 194 193 192 192 193 192 194 195 195 197 196 199 201 204 205 208 208 209 211 211 211 210 206 209 209 210 208 205 203 204 205 207 208 208 208 207 208 207 208 207 203 202 204 203 206 207 210 213 213 212 211 211 212 211 212 211 209 205 202 203 207 210 210 211 212 210 210
194 199 201 206 209 207 201 197 196 195 195 197 197 197 199 198 198 195 193 192 191 192 194 194 194 195 195 195 196 197 200 202 203 203 206 208 209 210 209 210 209 208 211 211 211 207 204 203 204 208 209 208 208 208 207 208 208 207 204 204 205 205 207 208 210 212 215 215 213 214 214 212 213 211 208 205 202 202 203 209 208 209 211 212 214
184 194 206 213 213 207 204 202 202 201 200 201 201 200 198 199 200 197 195 194 190 189 192 194 194 195 195 193 193 196 198 200 201 200 204 206 207 208 208 209 209 211 211 213 211 210 205 204 205 207 208 207 209 208 207 203 205 209 208 206 205 206 207 209 210 213 215 216 216 217 218 217 211 209 203 204 202 199 201 205 206 205 208 212 215
189 193 204 213 221 211 199 198 199 202 202 201 199 198 197 198 198 197 197 195 188 189 191 193 195 195 191 189 191 192 194 196 197 200 201 203 206 207 207 208 209 210 211 211 212 211 210 205 204 205 207 207 208 209 201 195 195 200 203 207 206 207 208 210 210 214 216 215 218 220 219 214 205 196 193 197 198 193 202 210 204 200 204 209 212
222 206 211 224 228 218 202 195 197 200 201 201 200 199 199 200 199 198 197 195 192 189 191 192 196 191 186 185 187 191 190 194 196 198 199 201 204 205 207 207 207 208 210 208 211 212 213 211 207 206 206 208 209 209 189 184 189 193 200 204 205 206 207 209 213 212 217 216 216 218 225 202 196 189 189 190 194 193 194 207 210 206 205 206 207
222 218 238 242 239 223 209 203 200 200 200 200 199 198 197 200 198 198 196 193 194 193 193 193 191 184 184 185 188 187 191 194 193 198 198 199 201 204 206 206 206 208 208 210 210 212 213 213 211 209 210 210 212 202 181 183 185 188 193 202 207 208 207 211 214 214 215 217 216 217 216 217 208 206 200 187 195 195 196 201 205 206 207 210 215
184 203 222 235 241 233 222 216 210 206 203 202 195 194 199 199 198 196 193 194 196 195 193 191 187 184 187 187 187 189 191 193 196 195 196 198 200 203 205 205 207 206 207 210 212 211 213 213 214 213 213 212 217 193 180 180 184 187 190 199 212 212 211 214 214 214 214 213 212 213 216 212 210 185 193 199 197 197 200 203 205 206 211 210 213
283 239 243 249 240 249 246 228 221 217 212 205 198 200 199 196 195 191 195 198 197 198 193 192 189 189 188 189 190 192 193 196 194 193 196 199 202 205 205 207 208 208 211 212 213 214 214 214 214 216 216 217 220 186 179 179 184 187 190 197 213 214 217 218 217 214 213 212 210 211 211 208 206 186 194 197 196 198 197 201 206 209 213 213 216
287 274 266 249 253 258 247 244 236 222 215 208 203 202 195 191 191 192 193 194 195 196 194 191 192 192 191 192 193 195 196 195 194 195 197 202 205 206 207 209 210 210 210 211 212 213 215 215 215 215 217 219 223 184 178 180 184 186 190 195 211 217 220 221 220 217 215 214 211 211 210 208 201 191 191 191 194 194 195 199 201 207 213 217 215
277 288 283 271 268 264 263 258 244 222 217 212 206 197 194 193 190 191 192 193 192 193 194 190 192 193 196 196 196 197 196 195 195 196 200 205 207 207 207 206 211 214 214 214 215 217 216 216 216 217 219 221 219 180 179 179 182 185 185 195 208 216 220 222 221 220 218 215 218 214 210 206 198 198 187 181 188 191 195 197 199 204 208 214 217
283 283 280 289 285 272 268 257 244 233 220 214 202 195 194 190 189 192 190 191 189 190 194 194 195 195 196 197 197 197 196 197 197 198 202 205 207 207 207 204 209 213 213 214 216 216 216 217 216 218 221 223 226 182 178 180 182 184 181 200 206 213 219 220 223 225 223 220 220 220 215 204 201 207 178 178 183 188 202 209 207 202 205 208 214
287 300 284 275 270 269 257 247 240 227 221 208 198 193 193 193 193 192 192 192 195 197 196 196 197 196 196 195 195 195 195 196 197 202 205 207 208 206 207 203 208 211 215 218 215 217 218 218 219 220 218 221 228 186 178 181 184 181 185 198 204 211 218 217 222 224 224 222 221 219 220 217 209 203 162 178 184 187 202 208 208 207 203 207 210
291 297 297 299 298 281 267 237 228 220 209 206 198 194 191 193 192 194 194 196 199 201 198 197 195 191 192 193 194 195 197 198 201 206 208 210 210 210 209 207 213 216 220 221 220 222 222 220 221 224 215 223 233 205 179 181 184 181 188 200 205 219 222 222 218 221 224 226 222 214 204 215 217 195 160 178 183 188 199 207 207 209 208 206 206
248 259 278 294 305 281 227 208 203 205 205 197 195 191 192 190 191 193 197 201 202 198 193 191 190 189 190 194 195 196 198 202 206 208 209 212 209 210 211 211 215 217 220 222 222 224 225 224 223 224 222 220 227 230 185 187 183 184 188 194 212 218 224 224 222 222 223 225 223 222 189 201 209 177 168 178 183 187 195 201 207 210 212 212 207
292 0 301 281 2 26 45 50 68 93 173 191 186 188 191 190 189 194 201 199 194 190 186 183 186 189 191 193 195 198 200 203 205 205 207 211 210 213 213 214 217 218 221 221 220 224 225 226 225 223 224 224 226 233 198 184 185 186 188 192 205 216 224 221 220 218 223 223 220 221 213 186 190 177 177 178 180 187 195 200 205 210 211 208 212
37 292 265 98 88 85 94 85 74 132 168 189 181 180 187 179 181 191 193 189 185 182 177 177 181 189 194 195 198 199 200 202 204 207 206 209 212 212 212 213 216 216 219 223 226 228 227 226 225 226 230 226 225 223 219 184 187 188 189 194 197 210 214 218 216 217 213 217 215 209 212 174 185 183 180 176 180 185 193 197 195 201 199 170 192
140 134 138 151 101 77 63 54 54 74 126 148 162 166 169 168 168 159 165 168 162 170 174 180 184 189 194 197 198 198 200 204 207 207 209 209 207 210 212 215 217 222 229 235 234 236 240 243 241 240 240 235 233 225 216 194 192 191 192 195 202 206 202 206 211 210 209 209 208 195 190 168 181 182 179 179 181 185 186 195 190 185 152 163 176
105 100 119 125 106 90 81 66 58 62 90 121 134 125 118 109 96 91 114 123 143 151 160 172 182 192 198 204 207 206 205 207 207 205 206 209 211 211 212 214 214 224 228 233 239 239 241 245 247 248 245 242 237 238 216 201 191 195 196 200 204 207 204 209 214 217 214 207 197 182 186 164 177 181 181 179 179 179 182 188 173 155 159 161 183
119 110 112 112 108 102 96 89 79 68 70 81 92 99 94 89 88 105 117 143 157 166 169 179 181 186 190 196 201 204 205 206 204 203 206 209 213 212 220 228 229 231 232 239 239 238 242 246 248 247 247 247 246 240 238 198 192 192 198 200 204 206 210 212 217 227 221 219 205 174 162 164 177 180 178 173 172 178 181 179 165 159 154 180 188
131 127 118 112 109 102 97 93 88 83 77 73 79 87 93 95 102 107 114 121 145 158 174 184 186 187 188 192 195 197 204 203 203 204 209 216 220 222 226 229 231 233 236 238 242 244 246 247 248 252 251 251 247 251 244 211 187 190 197 200 203 207 213 212 212 217 220 205 170 163 157 166 171 175 168 161 157 167 173 165 164 163 179 189 193
125 112 126 117 108 102 95 93 88 83 85 86 86 87 86 84 80 92 119 136 140 134 135 146 155 168 171 186 191 199 196 197 205 211 217 223 227 232 233 234 236 240 240 241 242 246 250 250 253 253 254 253 247 249 247 228 166 183 195 199 205 211 214 215 218 225 216 194 166 157 157 164 165 170 169 158 148 144 152 162 164 178 190 193 193
135 133 121 105 101 99 96 92 88 87 86 87 88 88 93 96 94 88 88 93 123 137 141 147 153 157 158 162 173 100 156 185 192 211 219 224 231 231 234 233 236 238 242 245 242 246 248 250 257 258 258 256 252 251 248 228 178 186 192 193 199 204 207 208 215 218 220 190 169 155 150 153 150 153 154 145 141 148 159 166 175 183 193 192 182
130 113 102 104 105 100 96 95 95 93 90 89 89 90 90 94 102 107 112 113 107 104 107 104 96 91 97 107 135 152 180 195 193 205 221 342 318 302 284 257 249 250 272 280 280 274 266 263 259 258 257 260 258 255 245 237 194 189 190 191 188 196 197 199 208 209 205 173 165 138 155 158 155 156 155 152 154 158 162 166 172 181 188 188 181
110 111 111 109 104 103 100 96 96 96 95 92 88 88 90 96 106 113 117 115 117 116 112 108 104 101 104 106 98 85 83 115 126 130 148 243 41 9 353 320 309 338 348 341 11 296 305 321 312 301 288 276 274 282 317 308 223 202 198 197 200 201 201 201 205 198 182 180 177 175 171 164 158 157 161 162 164 164 159 160 167 175 177 186 186
118 115 110 104 103 102 101 98 96 96 94 95 93 89 86 84 87 99 111 110 105 98 91 85 76 73 73 89 98 98 101 96 88 95 97 113 132 96 289 328 298 324 331 330 332 325 319 303 251 291 296 295 288 287 284 282 278 248 217 205 205 204 200 201 179 163 187 185 184 177 173 169 166 164 166 164 160 160 160 162 164 167 167 168 178